#timestamp,LO_Frequency,Hit,StdDev 
1618172895.1,286047030.5,P
1618172915.9,286047033.2,P
1618172935.7,286047033.1,P
1618172955.5,286047030.5,Y
1618172975.4,286047000.9,P
1618172995.2,286047000.6,N
1618173015.0,286047000.7,N
1618173016.0,286047000.7,N
1618173035.8,286047000.0,N
1618173055.6,286047001.5,N
1618173075.5,286047002.1,N
1618173095.3,286047002.0,N
1618173115.1,286047002.0,N
1618173135.9,286047001.8,N
1618173155.7,286047001.8,N
1618173175.5,286047004.1,N
1618173195.4,286047003.0,N
1618173215.2,286047003.0,N
1618173235.1,286047005.5,N
1618173236.0,286047005.5,N
1618173255.8,286047004.8,N
1618173275.6,286047004.5,N
1618173295.5,286047007.6,N
1618173315.3,286047006.8,N
1618173335.1,286047007.1,N
1618173355.9,286047004.5,N
1618173375.7,286047006.9,N
1618173395.6,286047006.5,N
1618173415.4,286047004.5,N
1618173435.2,286047006.2,N
1618173455.1,286047008.3,N
1618173456.0,286047008.3,N
1618173475.8,286047010.0,N
1618173495.7,286047008.1,N
1618173515.5,286047010.1,Y
1618173535.3,286047005.1,P
1618173555.2,286047003.7,P
1618173575.9,286047005.8,P
1618173595.7,286047003.3,Y
1618173615.6,286047000.0,P
1618173635.4,286047000.1,N
1618173655.3,286047002.8,N
1618173675.1,286047000.2,N
1618173676.0,286047000.2,N
1618173695.8,286047002.2,N
1618173715.7,286047001.7,N
1618173735.5,286047002.2,N
1618173755.3,286047002.0,N
1618173775.2,286047004.1,N
1618173795.0,286047003.9,N
1618173795.9,286047003.9,N
1618173815.8,286047001.7,N
1618173835.6,286047004.4,N
1618173855.4,286047003.9,N
1618173875.3,286047004.1,N
1618173895.1,286047006.0,Y
1618173915.8,286047004.3,P
1618173935.7,286047003.8,P
1618173955.5,286047001.3,N
1618173975.4,286047001.7,N
1618173995.2,286047004.3,Y
1618174015.0,286047002.4,P
1618174015.9,286047002.4,P
1618174035.8,286047002.8,P
1618174055.6,286047002.7,Y
1618174075.5,286046998.6,P
1618174095.3,286046996.8,N
1618174115.1,286046997.0,N
1618174135.9,286046999.5,N
1618174155.7,286046998.3,N
1618174175.5,286046998.9,N
1618174195.4,286047000.2,N
1618174215.2,286047002.8,N
1618174235.1,286047001.8,N
1618174236.0,286047001.8,N
1618174255.8,286047001.4,N
1618174275.6,286047001.4,N
1618174295.5,286047002.6,N
1618174315.3,286047001.7,N
1618174335.1,286047001.4,N
1618174355.9,286047003.2,N
1618174375.7,286047006.0,Y
1618174395.6,286047003.5,P
1618174415.4,286047004.3,N
1618174435.2,286047001.5,N
1618174455.1,286047001.3,N
1618174456.0,286047001.3,N
1618174475.8,286047003.2,N
1618174495.6,286047004.1,Y
1618174515.5,286047002.0,P
1618174535.3,286047002.5,P
1618174555.2,286047003.7,P
1618174575.9,286047001.4,N
1618174595.7,286047003.7,Y
1618174615.6,286047002.8,P
1618174635.4,286047002.8,P
1618174655.2,286047002.5,P
1618174675.1,286047002.5,Y
1618174676.0,286047002.5,P
1618174695.8,286047000.0,N
1618174715.7,286047000.2,N
1618174735.5,286047002.1,N
1618174755.3,286047001.6,N
1618174775.2,286047002.5,N
1618174795.0,286047001.6,N
1618174795.9,286047001.6,N
